Regional Weather Roundup
Issued by NWS

Home | Current Version | Previous Version | Graphics & Text | Print | Product List | Glossary On
Versions: 1 2 3 4 5 6 7 8 9 10 11 12 13 14 15 16 17 18 19 20 21 22 23 24 25 26 27 28 29 30 31 32 33 34 35 36 37 38 39 40 41 42 43 44 45 46 47 48 49 50
000
ASUS43 KOAX 220810
RWRNE

WEATHER ROUNDUP FOR NEBRASKA
NATIONAL WEATHER SERVICE OMAHA NE
300 AM CDT FRI AUG 22 2014

NOTES: SATELLITE DATA IS BEING USED TO AUGMENT CLOUD COVER ABOVE
       12000 FEET.
       "FAIR" INDICATES FEW OR NO CLOUDS BELOW 12,000 FEET WITH NO
       SIGNIFICANT WEATHER AND/OR OBSTRUCTIONS TO VISIBILITY.

  * THESE STATIONS DO NOT REPORT WEATHER SUCH AS RAIN...SNOW OR FOG.

NEZ001>004-019>022-054>056-220900-
NEBRASKA PANHANDLE

CITY           SKY/WX    TMP DP  RH WIND       PRES   REMARKS
SCOTTSBLUFF    CLOUDY    65  53  65 NW3       30.05R
ALLIANCE       CLOUDY    68  50  52 NW3       30.03S
CHADRON        PTCLDY    62  49  62 W5        30.00R
KIMBALL        CLOUDY    64  50  60 S3        30.11R
SIDNEY         LGT RAIN  65  57  75 SW12      30.10S
$$

NEZ057>060-069>072-079>082-220900-
SOUTHWEST NEBRASKA

CITY           SKY/WX    TMP DP  RH WIND       PRES   REMARKS
NORTH PLATTE   CLEAR     62  59  90 CALM      29.97F
IMPERIAL       MOCLDY    70  64  81 NW5       30.01R
LEXINGTON      CLEAR     69  67  94 CALM      29.94S FOG
MCCOOK         CLEAR     69  67  93 NW3       29.95S
OGALLALA       CLOUDY    66  63  88 W3        30.02S
$$

NEZ005>010-023>029-035>040-094-220900-
NORTH CENTRAL NEBRASKA

CITY           SKY/WX    TMP DP  RH WIND       PRES   REMARKS
VALENTINE      CLEAR     68  61  78 S6        29.96F
AINSWORTH      CLEAR     64  61  90 CALM      29.97S
BROKEN BOW     CLEAR     67  65  93 N7        29.95F
O`NEILL        CLEAR     67  65  91 N3        29.95S
ORD            CLEAR     69  66  90 NW6       29.91F
THEDFORD       CLEAR     65  62  91 CALM      29.99F
$$

NEZ041-046>049-061>064-073>077-083>087-220900-
SOUTH CENTRAL NEBRASKA

CITY           SKY/WX    TMP DP  RH WIND       PRES   REMARKS
GRAND ISLAND   CLEAR     71  68  90 CALM      29.90F
AURORA         CLEAR     72  71  98 CALM      29.89S
HASTINGS       CLEAR     70  65  84 W3        29.89F
HEBRON         MOCLDY    71  65  83 CALM      29.87R
HOLDREGE       CLEAR     69  66  92 CALM      29.93S
KEARNEY *      CLEAR     72  66  83 CALM      29.92F
YORK           MOCLDY    68 N/A N/A NE3       29.89R
$$

NEZ011>018-030>034-042>045-220900-
NORTHEAST NEBRASKA

CITY           SKY/WX    TMP DP  RH WIND       PRES   REMARKS
NORFOLK        PTCLDY    72  70  93 CALM      29.89R
ALBION         CLEAR     71  68  90 NW5       29.91S FOG
BLAIR          CLOUDY    75  71  86 NE6       29.89R
FREMONT        CLOUDY    73  70  91 CALM      29.88S
TEKAMAH        CLOUDY    74  71  91 SE6       29.87R
WAYNE          PTCLDY    70  69  96 CALM      29.90S
$$

NEZ050>053-065>068-078-088>093-220900-
SOUTHEAST NEBRASKA

CITY           SKY/WX    TMP DP  RH WIND       PRES   REMARKS
LINCOLN        CLOUDY    76  71  85 CALM      29.89R
OMAHA EPPLEY   CLOUDY    76  71  85 CALM      29.87R
BEATRICE       CLOUDY    73  71  94 NE3       29.88R
FALLS CITY     CLOUDY    81  72  74 SW5       29.89R
NEBRASKA CITY  CLOUDY    76  76 100 E3        29.88R FOG
PLATTSMOUTH    CLOUDY    76  73  92 NE7       29.88R
$$

NEZ044-045-051>053-067-220900-
OMAHA AREA

CITY           SKY/WX    TMP DP  RH WIND       PRES   REMARKS
OMAHA EPPLEY   CLOUDY    76  71  85 CALM      29.87R
BLAIR          CLOUDY    75  71  86 NE6       29.89R
FREMONT        CLOUDY    73  70  91 CALM      29.88S
MILLARD        CLOUDY    78  75  92 CALM      29.87R
OFFUTT AFB     CLOUDY    74  74 100 NE3       29.87R
PLATTSMOUTH    CLOUDY    76  73  92 NE7       29.88R
WAHOO          FAIR      73  69  87 N5        29.88R
$$



USA.gov is the U.S. government's official web portal to all federal, state and local government web resources and services.